Regional Weather Roundup
Issued by NWS Kansas City/Pleasant Hill, MO

Home | Current Version | Previous Version | Graphics & Text | Print | Product List | Glossary Off
Versions: 1 2 3 4 5 6 7 8 9 10 11 12 13 14 15 16 17 18 19 20 21 22 23 24 25 26 27 28

000
ASUS43 KEAX 231410
RWREAX

WEATHER ROUNDUP FOR EASTERN KANSAS AND NORTHWEST MISSOURI
NATIONAL WEATHER SERVICE KANSAS CITY/PLEASANT HILL MO
900 AM CDT WED MAY 23 2018

KSZ040-057-103>105-MOZ028-029-037-043-231500-
...KANSAS CITY METROPOLITAN AREA...

CITY           SKY/WX    TMP DP  RH WIND       PRES   REMARKS
K.C. INTL      MOSUNNY   75  67  76 S7        30.11R
K.C. DOWNTOWN  SUNNY     78  66  66 CALM      30.09R
LEES SUMMIT    SUNNY     76  68  76 S8        30.12R
OLATHE - IXD   SUNNY     75  68  78 S8        30.11R
OLATHE - OJC   SUNNY     74  68  81 SE6       30.11R
LAWRENCE       SUNNY     75  69  81 SE7       30.09R

$$

MOZ001>008-011>017-020>025-030>033-038>040-044>046-053-054-231500-
...NORTHERN AND CENTRAL MISSOURI...

CITY           SKY/WX    TMP DP  RH WIND       PRES   REMARKS
ST. JOSEPH     SUNNY     76  67  73 SE6       30.10R
MOSBY          SUNNY     73  63  68 SE5       30.11R
WARRENSBURG    SUNNY     73  66  78 CALM      30.11S
WHITEMAN AFB   MOSUNNY   75  68  77 S6        30.08R
CLINTON        NOT AVBL
SEDALIA        SUNNY     76  69  79 S3        30.13R
WARSAW         NOT AVBL
CHILLICOTHE      N/A     75  66  73 S6        30.13R
KIRKSVILLE     SUNNY     74  65  73 SE12      30.16R

$$

MOZ041-047>049-056>058-063>065-088>090-097-231500-
...EASTERN AND SOUTHERN MISSOURI...

CITY           SKY/WX    TMP DP  RH WIND       PRES   REMARKS
ST. LOUIS INTL MOSUNNY   74  62  66 SE9       30.17R
SPIRIT OF STL  SUNNY     75  63  66 E5        30.15R
COLUMBIA       SUNNY     75  63  66 SE9G18    30.14R
JEFFERSON CITY SUNNY     75  64  68 SE8       30.13R
ROLLA          SUNNY     73  63  70 E12       30.16R
OSAGE BEACH    SUNNY     74  67  78 SE5       30.14R
SPRINGFIELD    SUNNY     76  67  73 SE6       30.13R
BRANSON        PTSUNNY   72  72 100 CALM      30.15R
JOPLIN         SUNNY     76  70  82 S6        30.12R
WEST PLAINS    CLOUDY    76  70  82 SE3       30.17R

$$

IAZ060-094-KSZ022-034>040-054-083-096-NEZ052-066-093-231500-
...KANSAS...SOUTHEAST NEBRASKA AND IOWA...

CITY           SKY/WX    TMP DP  RH WIND       PRES   REMARKS
TOPEKA         SUNNY     76  71  85 SE3       30.08S
MANHATTAN      CLOUDY    79  69  71 SW7       30.07R
EMPORIA        SUNNY     74  69  85 S10       30.09R
CHANUTE        SUNNY     75  71  87 S7        30.11R
WICHITA        MOSUNNY   75  69  81 S12       30.08R
OMAHA          MOSUNNY   76  66  71 S14       30.06R
LINCOLN        SUNNY     77  68  73 S10       30.05S
FALLS CITY     SUNNY     76  66  71 S8        30.07S
LAMONI         SUNNY     73  64  73 S8        30.12R
DES MOINES     MOSUNNY   73  65  75 SE8       30.12R

$$





USA.gov is the U.S. government's official web portal to all federal, state and local government web resources and services.